Year,Month,Day,Hour,Minute,Value (Times are PST for windgust in km/hr)
2018,08,01,00,02,1.60
2018,08,01,00,03,1.60
2018,08,01,00,04,1.60
2018,08,01,00,05,1.60
2018,08,01,00,06,1.60
2018,08,01,00,07,1.60
2018,08,01,00,08,1.60
2018,08,01,00,09,1.60
2018,08,01,00,10,1.60
2018,08,01,00,11,1.60
2018,08,01,00,12,1.60
2018,08,01,00,13,1.60
2018,08,01,00,14,1.60
2018,08,01,00,16,1.60
2018,08,01,00,17,1.60
2018,08,01,00,19,3.20
2018,08,01,00,20,3.20
2018,08,01,00,21,1.60
2018,08,01,00,22,1.60
2018,08,01,00,26,1.60
2018,08,01,00,27,1.60
2018,08,01,00,28,1.60
2018,08,01,00,29,1.60
2018,08,01,00,30,1.60
2018,08,01,00,31,1.60
2018,08,01,00,32,1.60
2018,08,01,00,33,1.60
2018,08,01,00,38,1.60
2018,08,01,00,39,3.20
2018,08,01,00,40,1.60
2018,08,01,00,41,3.20
2018,08,01,00,42,1.60
2018,08,01,00,43,1.60
2018,08,01,00,44,3.20
2018,08,01,00,45,3.20
2018,08,01,00,46,1.60
2018,08,01,00,47,1.60
2018,08,01,00,48,3.20
2018,08,01,00,49,1.60
2018,08,01,00,50,1.60
2018,08,01,00,51,1.60
2018,08,01,00,52,1.60
2018,08,01,00,53,1.60
2018,08,01,00,54,1.60
2018,08,01,00,55,1.60
2018,08,01,00,56,1.60
2018,08,01,00,57,1.60
2018,08,01,00,58,1.60
2018,08,01,00,59,1.60
2018,08,01,01,00,1.60
2018,08,01,01,01,1.60
2018,08,01,01,03,1.60
2018,08,01,01,04,1.60
2018,08,01,01,06,1.60
2018,08,01,01,07,3.20
2018,08,01,01,08,1.60
2018,08,01,01,09,1.60
2018,08,01,01,10,1.60
2018,08,01,01,12,1.60
2018,08,01,01,13,1.60
2018,08,01,01,14,1.60
2018,08,01,01,15,1.60
2018,08,01,01,16,1.60
2018,08,01,01,17,3.20
2018,08,01,01,18,1.60
2018,08,01,01,19,1.60
2018,08,01,01,20,1.60
2018,08,01,01,22,1.60
2018,08,01,01,23,1.60
2018,08,01,01,24,1.60
2018,08,01,01,25,1.60
2018,08,01,01,26,1.60
2018,08,01,01,27,4.80
2018,08,01,01,28,3.20
2018,08,01,01,29,3.20
2018,08,01,01,30,1.60
2018,08,01,01,31,1.60
2018,08,01,01,32,1.60
2018,08,01,01,33,1.60
2018,08,01,01,34,1.60
2018,08,01,01,35,1.60
2018,08,01,01,36,1.60
2018,08,01,01,37,1.60
2018,08,01,01,38,1.60
2018,08,01,01,39,1.60
2018,08,01,01,45,1.60
2018,08,01,01,46,1.60
2018,08,01,01,48,1.60
2018,08,01,01,49,1.60
2018,08,01,01,54,1.60
2018,08,01,01,55,1.60
2018,08,01,01,57,1.60
2018,08,01,01,59,1.60
2018,08,01,02,00,1.60
2018,08,01,02,01,1.60
2018,08,01,02,02,1.60
2018,08,01,02,03,1.60
2018,08,01,02,04,3.20
2018,08,01,02,05,1.60
2018,08,01,02,06,3.20
2018,08,01,02,07,1.60
2018,08,01,02,08,3.20
2018,08,01,02,09,1.60
2018,08,01,02,10,1.60
2018,08,01,02,11,1.60
2018,08,01,02,12,3.20
2018,08,01,02,13,1.60
2018,08,01,02,14,1.60
2018,08,01,02,17,1.60
2018,08,01,02,18,1.60
2018,08,01,02,19,1.60
2018,08,01,02,20,1.60
2018,08,01,02,21,1.60
2018,08,01,02,22,1.60
2018,08,01,02,23,1.60
2018,08,01,02,25,1.60
2018,08,01,02,26,1.60
2018,08,01,02,27,1.60
2018,08,01,02,28,1.60
2018,08,01,02,29,1.60
2018,08,01,02,30,1.60
2018,08,01,02,31,1.60
2018,08,01,02,32,1.60
2018,08,01,02,33,1.60
2018,08,01,02,35,3.20
2018,08,01,02,36,3.20
2018,08,01,02,39,1.60
2018,08,01,02,40,1.60
2018,08,01,02,41,1.60
2018,08,01,02,42,3.20
2018,08,01,02,43,3.20
2018,08,01,02,45,1.60
2018,08,01,02,46,3.20
2018,08,01,02,47,3.20
2018,08,01,02,48,1.60
2018,08,01,02,49,1.60
2018,08,01,02,50,1.60
2018,08,01,02,51,1.60
2018,08,01,02,52,1.60
2018,08,01,02,53,1.60
2018,08,01,02,54,1.60
2018,08,01,02,55,1.60
2018,08,01,02,56,3.20
2018,08,01,02,57,1.60
2018,08,01,02,59,1.60
2018,08,01,03,00,1.60
2018,08,01,03,01,1.60
2018,08,01,03,02,1.60
2018,08,01,03,03,1.60
2018,08,01,03,05,1.60
2018,08,01,03,06,1.60
2018,08,01,03,07,1.60
2018,08,01,03,08,1.60
2018,08,01,03,16,1.60
2018,08,01,03,22,1.60
2018,08,01,03,26,1.60
2018,08,01,03,27,1.60
2018,08,01,03,28,1.60
2018,08,01,03,34,1.60
2018,08,01,03,41,1.60
2018,08,01,03,42,1.60
2018,08,01,03,54,1.60
2018,08,01,03,56,1.60
2018,08,01,04,04,1.60
2018,08,01,04,07,1.60
2018,08,01,04,12,1.60
2018,08,01,04,17,1.60
2018,08,01,04,18,1.60
2018,08,01,04,22,1.60
2018,08,01,04,40,1.60
2018,08,01,04,41,1.60
2018,08,01,04,42,1.60
2018,08,01,04,44,1.60
2018,08,01,04,47,1.60
2018,08,01,04,49,1.60
2018,08,01,04,50,1.60
2018,08,01,04,51,1.60
2018,08,01,05,00,1.60
2018,08,01,05,06,1.60
2018,08,01,05,07,1.60
2018,08,01,05,11,1.60
2018,08,01,05,12,1.60
2018,08,01,05,13,1.60
2018,08,01,05,14,1.60
2018,08,01,05,20,1.60
2018,08,01,05,21,1.60
2018,08,01,05,22,1.60
2018,08,01,05,23,1.60
2018,08,01,05,24,1.60
2018,08,01,05,25,1.60
2018,08,01,05,28,1.60
2018,08,01,05,29,1.60
2018,08,01,05,35,1.60
2018,08,01,05,42,1.60
2018,08,01,05,51,1.60
2018,08,01,05,52,1.60
2018,08,01,05,53,1.60
2018,08,01,05,54,1.60
2018,08,01,05,55,1.60
2018,08,01,05,56,1.60
2018,08,01,05,57,1.60
2018,08,01,05,58,1.60
2018,08,01,06,19,1.60
2018,08,01,06,20,1.60
2018,08,01,06,21,1.60
2018,08,01,06,22,1.60
2018,08,01,06,23,1.60
2018,08,01,06,24,1.60
2018,08,01,06,25,1.60
2018,08,01,06,26,1.60
2018,08,01,06,27,1.60
2018,08,01,06,28,1.60
2018,08,01,06,29,1.60
2018,08,01,06,30,1.60
2018,08,01,06,31,1.60
2018,08,01,06,32,1.60
2018,08,01,06,33,1.60
2018,08,01,06,34,1.60
2018,08,01,06,35,1.60
2018,08,01,06,36,1.60
2018,08,01,06,37,1.60
2018,08,01,06,38,1.60
2018,08,01,06,39,1.60
2018,08,01,06,42,1.60
2018,08,01,06,43,1.60
2018,08,01,06,45,1.60
2018,08,01,06,57,1.60
2018,08,01,06,58,1.60
2018,08,01,06,59,1.60
2018,08,01,07,00,1.60
2018,08,01,07,01,1.60
2018,08,01,07,03,1.60
2018,08,01,07,04,1.60
2018,08,01,07,06,1.60
2018,08,01,07,11,1.60
2018,08,01,07,12,1.60
2018,08,01,07,14,1.60
2018,08,01,07,15,1.60
2018,08,01,07,20,1.60
2018,08,01,07,21,1.60
2018,08,01,07,22,1.60
2018,08,01,07,24,1.60
2018,08,01,07,25,1.60
2018,08,01,07,28,1.60
2018,08,01,07,34,1.60
2018,08,01,07,36,1.60
2018,08,01,07,39,1.60
2018,08,01,07,40,1.60
2018,08,01,07,41,1.60
2018,08,01,07,42,1.60
2018,08,01,07,43,1.60
2018,08,01,07,44,1.60
2018,08,01,07,46,1.60
2018,08,01,07,47,1.60
2018,08,01,07,48,1.60
2018,08,01,07,49,1.60
2018,08,01,07,50,1.60
2018,08,01,07,51,1.60
2018,08,01,07,52,1.60
2018,08,01,07,54,1.60
2018,08,01,07,56,1.60
2018,08,01,07,57,1.60
2018,08,01,07,58,1.60
2018,08,01,07,59,1.60
2018,08,01,08,00,1.60
2018,08,01,08,01,1.60
2018,08,01,08,02,1.60
2018,08,01,08,03,1.60
2018,08,01,08,04,1.60
2018,08,01,08,05,1.60
2018,08,01,08,06,3.20
2018,08,01,08,07,1.60
2018,08,01,08,08,1.60
2018,08,01,08,09,3.20
2018,08,01,08,10,4.80
2018,08,01,08,11,3.20
2018,08,01,08,12,6.40
2018,08,01,08,13,6.40
2018,08,01,08,14,3.20
2018,08,01,08,15,1.60
2018,08,01,08,16,1.60
2018,08,01,08,17,1.60
2018,08,01,08,18,1.60
2018,08,01,08,19,4.80
2018,08,01,08,20,4.80
2018,08,01,08,21,3.20
2018,08,01,08,22,1.60
2018,08,01,08,23,1.60
2018,08,01,08,24,3.20
2018,08,01,08,25,3.20
2018,08,01,08,26,3.20
2018,08,01,08,27,4.80
2018,08,01,08,28,8.10
2018,08,01,08,29,6.40
2018,08,01,08,30,6.40
2018,08,01,08,31,4.80
2018,08,01,08,32,1.60
2018,08,01,08,33,4.80
2018,08,01,08,34,3.20
2018,08,01,08,35,1.60
2018,08,01,08,36,3.20
2018,08,01,08,37,4.80
2018,08,01,08,38,3.20
2018,08,01,08,39,3.20
2018,08,01,08,40,3.20
2018,08,01,08,41,3.20
2018,08,01,08,42,6.40
2018,08,01,08,43,6.40
2018,08,01,08,44,3.20
2018,08,01,08,45,1.60
2018,08,01,08,46,1.60
2018,08,01,08,47,3.20
2018,08,01,08,48,3.20
2018,08,01,08,49,3.20
2018,08,01,08,50,3.20
2018,08,01,08,51,3.20
2018,08,01,08,52,4.80
2018,08,01,08,53,8.10
2018,08,01,08,54,6.40
2018,08,01,08,55,3.20
2018,08,01,08,56,4.80
2018,08,01,08,57,4.80
2018,08,01,08,58,4.80
2018,08,01,08,59,4.80
2018,08,01,09,00,4.80
2018,08,01,09,01,6.40
2018,08,01,09,02,3.20
2018,08,01,09,03,4.80
2018,08,01,09,04,4.80
2018,08,01,09,05,4.80
2018,08,01,09,06,3.20
2018,08,01,09,07,6.40
2018,08,01,09,08,4.80
2018,08,01,09,09,4.80
2018,08,01,09,10,4.80
2018,08,01,09,11,4.80
2018,08,01,09,12,3.20
2018,08,01,09,13,3.20
2018,08,01,09,14,4.80
2018,08,01,09,15,4.80
2018,08,01,09,16,1.60
2018,08,01,09,17,3.20
2018,08,01,09,18,6.40
2018,08,01,09,19,4.80
2018,08,01,09,20,4.80
2018,08,01,09,21,3.20
2018,08,01,09,22,3.20
2018,08,01,09,23,3.20
2018,08,01,09,24,3.20
2018,08,01,09,25,3.20
2018,08,01,09,26,3.20
2018,08,01,09,27,6.40
2018,08,01,09,28,4.80
2018,08,01,09,29,6.40
2018,08,01,09,30,3.20
2018,08,01,09,31,3.20
2018,08,01,09,32,1.60
2018,08,01,09,33,3.20
2018,08,01,09,34,11.30
2018,08,01,09,35,8.10
2018,08,01,09,36,3.20
2018,08,01,09,37,4.80
2018,08,01,09,38,4.80
2018,08,01,09,39,9.60
2018,08,01,09,40,8.10
2018,08,01,09,41,6.40
2018,08,01,09,42,8.10
2018,08,01,09,43,6.40
2018,08,01,09,44,4.80
2018,08,01,09,45,4.80
2018,08,01,09,46,6.40
2018,08,01,09,47,6.40
2018,08,01,09,48,4.80
2018,08,01,09,49,4.80
2018,08,01,09,50,3.20
2018,08,01,09,51,6.40
2018,08,01,09,52,6.40
2018,08,01,09,53,12.90
2018,08,01,09,54,8.10
2018,08,01,09,55,8.10
2018,08,01,09,56,3.20
2018,08,01,09,57,6.40
2018,08,01,09,58,8.10
2018,08,01,09,59,8.10
2018,08,01,10,00,8.10
2018,08,01,10,01,11.30
2018,08,01,10,02,4.80
2018,08,01,10,03,3.20
2018,08,01,10,04,4.80
2018,08,01,10,05,3.20
2018,08,01,10,06,1.60
2018,08,01,10,07,8.10
2018,08,01,10,08,6.40
2018,08,01,10,09,11.30
2018,08,01,10,10,6.40
2018,08,01,10,11,3.20
2018,08,01,10,12,6.40
2018,08,01,10,13,9.60
2018,08,01,10,14,14.50
2018,08,01,10,15,8.10
2018,08,01,10,16,4.80
2018,08,01,10,17,3.20
2018,08,01,10,18,4.80
2018,08,01,10,19,4.80
2018,08,01,10,20,3.20
2018,08,01,10,21,4.80
2018,08,01,10,22,3.20
2018,08,01,10,23,6.40
2018,08,01,10,24,8.10
2018,08,01,10,25,4.80
2018,08,01,10,26,6.40
2018,08,01,10,27,3.20
2018,08,01,10,28,4.80
2018,08,01,10,29,4.80
2018,08,01,10,30,6.40
2018,08,01,10,31,9.60
2018,08,01,10,32,4.80
2018,08,01,10,33,6.40
2018,08,01,10,34,4.80
2018,08,01,10,35,8.10
2018,08,01,10,36,9.60
2018,08,01,10,37,8.10
2018,08,01,10,38,6.40
2018,08,01,10,39,4.80
2018,08,01,10,40,4.80
2018,08,01,10,41,11.30
2018,08,01,10,42,4.80
2018,08,01,10,43,6.40
2018,08,01,10,44,4.80
2018,08,01,10,45,6.40
2018,08,01,10,46,8.10
2018,08,01,10,47,9.60
2018,08,01,10,48,12.90
2018,08,01,10,49,9.60
2018,08,01,10,50,8.10
2018,08,01,10,51,9.60
2018,08,01,10,52,3.20
2018,08,01,10,53,3.20
2018,08,01,10,54,6.40
2018,08,01,10,55,4.80
2018,08,01,10,56,8.10
2018,08,01,10,57,11.30
2018,08,01,10,58,8.10
2018,08,01,10,59,6.40
2018,08,01,11,00,11.30
2018,08,01,11,01,6.40
2018,08,01,11,02,3.20
2018,08,01,11,03,8.10
2018,08,01,11,04,8.10
2018,08,01,11,05,11.30
2018,08,01,11,06,12.90
2018,08,01,11,07,9.60
2018,08,01,11,08,6.40
2018,08,01,11,09,9.60
2018,08,01,11,10,8.10
2018,08,01,11,11,14.50
2018,08,01,11,12,6.40
2018,08,01,11,13,3.20
2018,08,01,11,14,6.40
2018,08,01,11,15,6.40
2018,08,01,11,16,11.30
2018,08,01,11,17,6.40
2018,08,01,11,18,9.60
2018,08,01,11,19,9.60
2018,08,01,11,20,9.60
2018,08,01,11,21,14.50
2018,08,01,11,22,14.50
2018,08,01,11,23,12.90
2018,08,01,11,24,12.90
2018,08,01,11,25,8.10
2018,08,01,11,26,3.20
2018,08,01,11,27,14.50
2018,08,01,11,28,14.50
2018,08,01,11,29,8.10
2018,08,01,11,30,14.50
2018,08,01,11,31,8.10
2018,08,01,11,32,8.10
2018,08,01,11,33,9.60
2018,08,01,11,34,8.10
2018,08,01,11,35,9.60
2018,08,01,11,36,12.90
2018,08,01,11,37,9.60
2018,08,01,11,38,12.90
2018,08,01,11,39,12.90
2018,08,01,11,40,9.60
2018,08,01,11,41,8.10
2018,08,01,11,42,8.10
2018,08,01,11,43,9.60
2018,08,01,11,44,11.30
2018,08,01,11,45,12.90
2018,08,01,11,46,11.30
2018,08,01,11,47,6.40
2018,08,01,11,48,8.10
2018,08,01,11,49,6.40
2018,08,01,11,50,8.10
2018,08,01,11,51,11.30
2018,08,01,11,52,12.90
2018,08,01,11,53,11.30
2018,08,01,11,54,6.40
2018,08,01,11,55,11.30
2018,08,01,11,56,12.90
2018,08,01,11,57,12.90
2018,08,01,11,58,11.30
2018,08,01,11,59,8.10
2018,08,01,12,00,12.90
2018,08,01,12,01,9.60
2018,08,01,12,02,6.40
2018,08,01,12,03,8.10
2018,08,01,12,04,6.40
2018,08,01,12,05,8.10
2018,08,01,12,06,9.60
2018,08,01,12,07,8.10
2018,08,01,12,08,6.40
2018,08,01,12,09,14.50
2018,08,01,12,10,11.30
2018,08,01,12,11,16.10
2018,08,01,12,12,9.60
2018,08,01,12,13,9.60
2018,08,01,12,14,3.20
2018,08,01,12,15,4.80
2018,08,01,12,16,3.20
2018,08,01,12,17,9.60
2018,08,01,12,18,4.80
2018,08,01,12,19,9.60
2018,08,01,12,20,14.50
2018,08,01,12,21,4.80
2018,08,01,12,22,9.60
2018,08,01,12,23,14.50
2018,08,01,12,24,11.30
2018,08,01,12,25,11.30
2018,08,01,12,26,11.30
2018,08,01,12,27,14.50
2018,08,01,12,28,12.90
2018,08,01,12,29,12.90
2018,08,01,12,30,11.30
2018,08,01,12,31,6.40
2018,08,01,12,32,17.70
2018,08,01,12,33,19.30
2018,08,01,12,34,11.30
2018,08,01,12,35,8.10
2018,08,01,12,36,16.10
2018,08,01,12,37,11.30
2018,08,01,12,38,6.40
2018,08,01,12,39,8.10
2018,08,01,12,40,11.30
2018,08,01,12,41,9.60
2018,08,01,12,42,12.90
2018,08,01,12,43,9.60
2018,08,01,12,44,11.30
2018,08,01,12,45,17.70
2018,08,01,12,46,9.60
2018,08,01,12,47,17.70
2018,08,01,12,48,16.10
2018,08,01,12,49,6.40
2018,08,01,12,50,14.50
2018,08,01,12,51,14.50
2018,08,01,12,52,8.10
2018,08,01,12,53,9.60
2018,08,01,12,54,8.10
2018,08,01,12,55,12.90
2018,08,01,12,56,6.40
2018,08,01,12,57,12.90
2018,08,01,12,58,9.60
2018,08,01,12,59,4.80
2018,08,01,13,00,8.10
2018,08,01,13,01,16.10
2018,08,01,13,02,6.40
2018,08,01,13,03,4.80
2018,08,01,13,04,3.20
2018,08,01,13,05,6.40
2018,08,01,13,06,9.60
2018,08,01,13,07,8.10
2018,08,01,13,08,12.90
2018,08,01,13,09,14.50
2018,08,01,13,10,17.70
2018,08,01,13,11,12.90
2018,08,01,13,12,3.20
2018,08,01,13,13,17.70
2018,08,01,13,14,17.70
2018,08,01,13,15,9.60
2018,08,01,13,16,12.90
2018,08,01,13,17,9.60
2018,08,01,13,18,12.90
2018,08,01,13,19,12.90
2018,08,01,13,20,11.30
2018,08,01,13,21,14.50
2018,08,01,13,22,12.90
2018,08,01,13,23,11.30
2018,08,01,13,24,6.40
2018,08,01,13,25,6.40
2018,08,01,13,26,11.30
2018,08,01,13,27,8.10
2018,08,01,13,28,6.40
2018,08,01,13,29,16.10
2018,08,01,13,30,14.50
2018,08,01,13,31,9.60
2018,08,01,13,32,12.90
2018,08,01,13,33,14.50
2018,08,01,13,34,11.30
2018,08,01,13,35,9.60
2018,08,01,13,36,4.80
2018,08,01,13,37,16.10
2018,08,01,13,38,11.30
2018,08,01,13,39,8.10
2018,08,01,13,40,4.80
2018,08,01,13,41,11.30
2018,08,01,13,42,11.30
2018,08,01,13,43,11.30
2018,08,01,13,44,9.60
2018,08,01,13,45,8.10
2018,08,01,13,46,12.90
2018,08,01,13,47,11.30
2018,08,01,13,48,12.90
2018,08,01,13,49,8.10
2018,08,01,13,50,14.50
2018,08,01,13,51,17.70
2018,08,01,13,52,19.30
2018,08,01,13,53,8.10
2018,08,01,13,54,12.90
2018,08,01,13,55,22.50
2018,08,01,13,56,12.90
2018,08,01,13,57,8.10
2018,08,01,13,58,16.10
2018,08,01,13,59,8.10
2018,08,01,14,00,6.40
2018,08,01,14,01,11.30
2018,08,01,14,02,16.10
2018,08,01,14,03,8.10
2018,08,01,14,04,12.90
2018,08,01,14,05,9.60
2018,08,01,14,06,11.30
2018,08,01,14,07,6.40
2018,08,01,14,08,9.60
2018,08,01,14,09,16.10
2018,08,01,14,10,12.90
2018,08,01,14,11,11.30
2018,08,01,14,12,16.10
2018,08,01,14,13,12.90
2018,08,01,14,14,8.10
2018,08,01,14,15,11.30
2018,08,01,14,16,11.30
2018,08,01,14,17,9.60
2018,08,01,14,18,12.90
2018,08,01,14,19,14.50
2018,08,01,14,20,11.30
2018,08,01,14,21,11.30
2018,08,01,14,22,8.10
2018,08,01,14,23,8.10
2018,08,01,14,24,8.10
2018,08,01,14,25,11.30
2018,08,01,14,26,4.80
2018,08,01,14,27,4.80
2018,08,01,14,28,12.90
2018,08,01,14,29,14.50
2018,08,01,14,30,12.90
2018,08,01,14,31,12.90
2018,08,01,14,32,16.10
2018,08,01,14,33,9.60
2018,08,01,14,34,11.30
2018,08,01,14,35,14.50
2018,08,01,14,36,16.10
2018,08,01,14,37,12.90
2018,08,01,14,38,8.10
2018,08,01,14,39,14.50
2018,08,01,14,40,17.70
2018,08,01,14,41,11.30
2018,08,01,14,42,12.90
2018,08,01,14,43,12.90
2018,08,01,14,44,8.10
2018,08,01,14,45,11.30
2018,08,01,14,46,12.90
2018,08,01,14,47,16.10
2018,08,01,14,48,11.30
2018,08,01,14,49,12.90
2018,08,01,14,50,9.60
2018,08,01,14,51,8.10
2018,08,01,14,52,19.30
2018,08,01,14,53,12.90
2018,08,01,14,54,14.50
2018,08,01,14,55,9.60
2018,08,01,14,56,6.40
2018,08,01,14,57,6.40
2018,08,01,14,58,6.40
2018,08,01,14,59,9.60
2018,08,01,15,00,12.90
2018,08,01,15,01,17.70
2018,08,01,15,02,14.50
2018,08,01,15,03,11.30
2018,08,01,15,04,16.10
2018,08,01,15,05,8.10
2018,08,01,15,06,12.90
2018,08,01,15,07,8.10
2018,08,01,15,08,19.30
2018,08,01,15,09,11.30
2018,08,01,15,10,16.10
2018,08,01,15,11,16.10
2018,08,01,15,12,14.50
2018,08,01,15,13,12.90
2018,08,01,15,14,14.50
2018,08,01,15,15,4.80
2018,08,01,15,16,9.60
2018,08,01,15,17,4.80
2018,08,01,15,18,16.10
2018,08,01,15,19,12.90
2018,08,01,15,20,9.60
2018,08,01,15,21,11.30
2018,08,01,15,22,16.10
2018,08,01,15,23,11.30
2018,08,01,15,24,11.30
2018,08,01,15,25,11.30
2018,08,01,15,26,11.30
2018,08,01,15,27,12.90
2018,08,01,15,28,12.90
2018,08,01,15,29,8.10
2018,08,01,15,30,6.40
2018,08,01,15,31,8.10
2018,08,01,15,32,4.80
2018,08,01,15,33,14.50
2018,08,01,15,34,16.10
2018,08,01,15,35,16.10
2018,08,01,15,36,14.50
2018,08,01,15,37,12.90
2018,08,01,15,38,8.10
2018,08,01,15,39,6.40
2018,08,01,15,40,4.80
2018,08,01,15,41,11.30
2018,08,01,15,42,8.10
2018,08,01,15,43,8.10
2018,08,01,15,44,12.90
2018,08,01,15,45,6.40
2018,08,01,15,46,12.90
2018,08,01,15,47,8.10
2018,08,01,15,48,9.60
2018,08,01,15,49,8.10
2018,08,01,15,50,11.30
2018,08,01,15,51,9.60
2018,08,01,15,52,11.30
2018,08,01,15,53,9.60
2018,08,01,15,54,12.90
2018,08,01,15,55,9.60
2018,08,01,15,56,9.60
2018,08,01,15,57,9.60
2018,08,01,15,58,9.60
2018,08,01,15,59,4.80
2018,08,01,16,00,9.60
2018,08,01,16,01,9.60
2018,08,01,16,02,16.10
2018,08,01,16,03,4.80
2018,08,01,16,04,14.50
2018,08,01,16,05,6.40
2018,08,01,16,06,4.80
2018,08,01,16,07,9.60
2018,08,01,16,08,4.80
2018,08,01,16,09,11.30
2018,08,01,16,10,14.50
2018,08,01,16,11,8.10
2018,08,01,16,12,12.90
2018,08,01,16,13,11.30
2018,08,01,16,14,11.30
2018,08,01,16,15,6.40
2018,08,01,16,16,8.10
2018,08,01,16,17,16.10
2018,08,01,16,18,12.90
2018,08,01,16,19,4.80
2018,08,01,16,20,6.40
2018,08,01,16,21,9.60
2018,08,01,16,22,6.40
2018,08,01,16,23,16.10
2018,08,01,16,24,9.60
2018,08,01,16,25,4.80
2018,08,01,16,26,8.10
2018,08,01,16,27,11.30
2018,08,01,16,28,8.10
2018,08,01,16,29,9.60
2018,08,01,16,30,11.30
2018,08,01,16,31,9.60
2018,08,01,16,32,8.10
2018,08,01,16,33,9.60
2018,08,01,16,34,11.30
2018,08,01,16,35,9.60
2018,08,01,16,36,11.30
2018,08,01,16,37,9.60
2018,08,01,16,38,8.10
2018,08,01,16,39,6.40
2018,08,01,16,40,8.10
2018,08,01,16,41,8.10
2018,08,01,16,42,9.60
2018,08,01,16,43,8.10
2018,08,01,16,44,9.60
2018,08,01,16,45,6.40
2018,08,01,16,46,9.60
2018,08,01,16,47,12.90
2018,08,01,16,48,12.90
2018,08,01,16,49,11.30
2018,08,01,16,50,8.10
2018,08,01,16,51,6.40
2018,08,01,16,52,11.30
2018,08,01,16,53,8.10
2018,08,01,16,54,11.30
2018,08,01,16,55,12.90
2018,08,01,16,56,14.50
2018,08,01,16,57,14.50
2018,08,01,16,58,11.30
2018,08,01,16,59,6.40
2018,08,01,17,00,8.10
2018,08,01,17,01,9.60
2018,08,01,17,02,4.80
2018,08,01,17,03,6.40
2018,08,01,17,04,8.10
2018,08,01,17,05,6.40
2018,08,01,17,06,4.80
2018,08,01,17,07,8.10
2018,08,01,17,08,8.10
2018,08,01,17,09,9.60
2018,08,01,17,10,8.10
2018,08,01,17,11,12.90
2018,08,01,17,12,11.30
2018,08,01,17,13,4.80
2018,08,01,17,14,9.60
2018,08,01,17,15,9.60
2018,08,01,17,16,8.10
2018,08,01,17,17,6.40
2018,08,01,17,18,6.40
2018,08,01,17,19,6.40
2018,08,01,17,20,3.20
2018,08,01,17,21,11.30
2018,08,01,17,22,8.10
2018,08,01,17,23,4.80
2018,08,01,17,24,4.80
2018,08,01,17,25,4.80
2018,08,01,17,26,4.80
2018,08,01,17,27,6.40
2018,08,01,17,28,14.50
2018,08,01,17,29,6.40
2018,08,01,17,30,6.40
2018,08,01,17,31,4.80
2018,08,01,17,32,8.10
2018,08,01,17,33,8.10
2018,08,01,17,34,8.10
2018,08,01,17,35,6.40
2018,08,01,17,36,9.60
2018,08,01,17,37,6.40
2018,08,01,17,38,8.10
2018,08,01,17,39,6.40
2018,08,01,17,40,4.80
2018,08,01,17,41,9.60
2018,08,01,17,42,6.40
2018,08,01,17,43,4.80
2018,08,01,17,44,4.80
2018,08,01,17,45,6.40
2018,08,01,17,46,4.80
2018,08,01,17,47,4.80
2018,08,01,17,48,6.40
2018,08,01,17,49,9.60
2018,08,01,17,50,6.40
2018,08,01,17,51,4.80
2018,08,01,17,52,8.10
2018,08,01,17,53,4.80
2018,08,01,17,54,4.80
2018,08,01,17,55,9.60
2018,08,01,17,56,4.80
2018,08,01,17,57,8.10
2018,08,01,17,58,6.40
2018,08,01,17,59,6.40
2018,08,01,18,00,11.30
2018,08,01,18,01,6.40
2018,08,01,18,02,9.60
2018,08,01,18,03,8.10
2018,08,01,18,04,4.80
2018,08,01,18,05,9.60
2018,08,01,18,06,12.90
2018,08,01,18,07,6.40
2018,08,01,18,08,4.80
2018,08,01,18,09,4.80
2018,08,01,18,10,9.60
2018,08,01,18,11,9.60
2018,08,01,18,12,8.10
2018,08,01,18,13,8.10
2018,08,01,18,14,11.30
2018,08,01,18,15,12.90
2018,08,01,18,16,8.10
2018,08,01,18,17,6.40
2018,08,01,18,18,8.10
2018,08,01,18,19,4.80
2018,08,01,18,20,6.40
2018,08,01,18,21,8.10
2018,08,01,18,22,4.80
2018,08,01,18,23,3.20
2018,08,01,18,24,3.20
2018,08,01,18,25,6.40
2018,08,01,18,26,11.30
2018,08,01,18,27,12.90
2018,08,01,18,28,6.40
2018,08,01,18,29,3.20
2018,08,01,18,30,4.80
2018,08,01,18,31,4.80
2018,08,01,18,32,4.80
2018,08,01,18,33,6.40
2018,08,01,18,34,6.40
2018,08,01,18,35,4.80
2018,08,01,18,36,6.40
2018,08,01,18,37,6.40
2018,08,01,18,38,4.80
2018,08,01,18,39,4.80
2018,08,01,18,40,6.40
2018,08,01,18,41,3.20
2018,08,01,18,42,6.40
2018,08,01,18,43,8.10
2018,08,01,18,44,3.20
2018,08,01,18,45,8.10
2018,08,01,18,46,6.40
2018,08,01,18,47,1.60
2018,08,01,18,48,3.20
2018,08,01,18,49,4.80
2018,08,01,18,50,4.80
2018,08,01,18,51,3.20
2018,08,01,18,52,1.60
2018,08,01,18,53,6.40
2018,08,01,18,54,4.80
2018,08,01,18,55,4.80
2018,08,01,18,56,3.20
2018,08,01,18,57,1.60
2018,08,01,18,58,9.60
2018,08,01,18,59,3.20
2018,08,01,19,00,3.20
2018,08,01,19,01,4.80
2018,08,01,19,02,3.20
2018,08,01,19,03,3.20
2018,08,01,19,04,3.20
2018,08,01,19,05,4.80
2018,08,01,19,06,4.80
2018,08,01,19,07,3.20
2018,08,01,19,08,1.60
2018,08,01,19,09,3.20
2018,08,01,19,10,4.80
2018,08,01,19,11,6.40
2018,08,01,19,12,4.80
2018,08,01,19,13,1.60
2018,08,01,19,14,1.60
2018,08,01,19,15,3.20
2018,08,01,19,16,1.60
2018,08,01,19,17,3.20
2018,08,01,19,18,3.20
2018,08,01,19,19,6.40
2018,08,01,19,20,6.40
2018,08,01,19,21,6.40
2018,08,01,19,22,4.80
2018,08,01,19,23,4.80
2018,08,01,19,24,4.80
2018,08,01,19,25,3.20
2018,08,01,19,26,3.20
2018,08,01,19,27,9.60
2018,08,01,19,28,9.60
2018,08,01,19,29,6.40
2018,08,01,19,30,4.80
2018,08,01,19,31,9.60
2018,08,01,19,32,6.40
2018,08,01,19,33,3.20
2018,08,01,19,34,8.10
2018,08,01,19,35,6.40
2018,08,01,19,36,8.10
2018,08,01,19,37,8.10
2018,08,01,19,38,11.30
2018,08,01,19,39,4.80
2018,08,01,19,40,6.40
2018,08,01,19,41,4.80
2018,08,01,19,42,8.10
2018,08,01,19,43,4.80
2018,08,01,19,44,6.40
2018,08,01,19,45,6.40
2018,08,01,19,46,6.40
2018,08,01,19,47,4.80
2018,08,01,19,48,3.20
2018,08,01,19,49,3.20
2018,08,01,19,50,4.80
2018,08,01,19,51,3.20
2018,08,01,19,52,3.20
2018,08,01,19,53,4.80
2018,08,01,19,54,4.80
2018,08,01,19,55,3.20
2018,08,01,19,56,3.20
2018,08,01,19,57,4.80
2018,08,01,19,58,9.60
2018,08,01,19,59,4.80
2018,08,01,20,00,4.80
2018,08,01,20,01,3.20
2018,08,01,20,02,3.20
2018,08,01,20,03,8.10
2018,08,01,20,04,11.30
2018,08,01,20,05,4.80
2018,08,01,20,06,3.20
2018,08,01,20,07,4.80
2018,08,01,20,08,4.80
2018,08,01,20,09,3.20
2018,08,01,20,10,4.80
2018,08,01,20,11,4.80
2018,08,01,20,12,3.20
2018,08,01,20,13,4.80
2018,08,01,20,14,4.80
2018,08,01,20,15,4.80
2018,08,01,20,16,6.40
2018,08,01,20,17,4.80
2018,08,01,20,18,3.20
2018,08,01,20,19,1.60
2018,08,01,20,20,4.80
2018,08,01,20,21,1.60
2018,08,01,20,22,1.60
2018,08,01,20,23,6.40
2018,08,01,20,24,4.80
2018,08,01,20,25,1.60
2018,08,01,20,26,4.80
2018,08,01,20,27,3.20
2018,08,01,20,28,1.60
2018,08,01,20,29,1.60
2018,08,01,20,30,8.10
2018,08,01,20,31,8.10
2018,08,01,20,32,3.20
2018,08,01,20,33,1.60
2018,08,01,20,34,1.60
2018,08,01,20,35,3.20
2018,08,01,20,36,4.80
2018,08,01,20,37,3.20
2018,08,01,20,38,1.60
2018,08,01,20,39,1.60
2018,08,01,20,40,3.20
2018,08,01,20,41,1.60
2018,08,01,20,42,1.60
2018,08,01,20,43,3.20
2018,08,01,20,44,3.20
2018,08,01,20,45,1.60
2018,08,01,20,46,1.60
2018,08,01,20,47,4.80
2018,08,01,20,48,4.80
2018,08,01,20,49,1.60
2018,08,01,20,50,1.60
2018,08,01,20,51,3.20
2018,08,01,20,52,3.20
2018,08,01,20,53,1.60
2018,08,01,20,54,4.80
2018,08,01,20,55,4.80
2018,08,01,20,56,1.60
2018,08,01,20,57,1.60
2018,08,01,20,58,1.60
2018,08,01,20,59,1.60
2018,08,01,21,05,1.60
2018,08,01,21,06,1.60
2018,08,01,21,07,3.20
2018,08,01,21,08,1.60
2018,08,01,21,10,1.60
2018,08,01,21,11,3.20
2018,08,01,21,12,3.20
2018,08,01,21,13,3.20
2018,08,01,21,14,3.20
2018,08,01,21,15,4.80
2018,08,01,21,16,3.20
2018,08,01,21,17,1.60
2018,08,01,21,18,3.20
2018,08,01,21,19,3.20
2018,08,01,21,20,1.60
2018,08,01,21,21,1.60
2018,08,01,21,22,1.60
2018,08,01,21,23,3.20
2018,08,01,21,24,1.60
2018,08,01,21,25,1.60
2018,08,01,21,26,1.60
2018,08,01,21,27,1.60
2018,08,01,21,28,1.60
2018,08,01,21,29,1.60
2018,08,01,21,30,1.60
2018,08,01,21,31,1.60
2018,08,01,21,32,3.20
2018,08,01,21,33,3.20
2018,08,01,21,34,3.20
2018,08,01,21,35,3.20
2018,08,01,21,36,1.60
2018,08,01,21,38,1.60
2018,08,01,21,39,3.20
2018,08,01,21,40,1.60